"Period start","avg(HW err(1)/warn(2) (#))","avg(Visibility (m))","avg(Weather code (#))","avg(Precip intensity (mm/h))","min(HW err(1)/warn(2) (#))","max(HW err(1)/warn(2) (#))","std(HW err(1)/warn(2) (#))","med(HW err(1)/warn(2) (#))","min(Visibility (m))","max(Visibility (m))","std(Visibility (m))","med(Visibility (m))","min(Weather code (#))","max(Weather code (#))","std(Weather code (#))","med(Weather code (#))","min(Precip intensity (mm/h))","max(Precip intensity (mm/h))","std(Precip intensity (mm/h))","med(Precip intensity (mm/h))"
2014-10-17 00:00:00,2,44887,0,0.00,2,2,0,2,30583,50000,6464,48768,0,0,0,0,0.00,0.00,0.00,0.00
2014-10-17 00:10:00,2,44354,0,0.00,2,2,0,2,32051,50000,6100,46996,0,0,0,0,0.00,0.00,0.00,0.00
2014-10-17 00:20:00,2,38289,0,0.00,2,2,0,2,25407,46382,7069,40863,0,0,0,0,0.00,0.00,0.00,0.00
2014-10-17 00:30:00,2,36441,0,0.00,2,2,0,2,29300,50000,6144,34733,0,0,0,0,0.00,0.00,0.00,0.00
2014-10-17 00:40:00,2,41739,0,0.00,2,2,0,2,26828,47849,6132,43252,0,0,0,0,0.00,0.00,0.00,0.00
2014-10-17 00:50:00,2,38129,0,0.00,2,2,0,2,29823,50000,6893,35903,0,0,0,0,0.00,0.00,0.00,0.00
2014-10-17 01:00:00,2,36480,0,0.00,2,2,0,2,29023,47122,6627,35417,0,0,0,0,0.00,0.00,0.00,0.00
2014-10-17 01:10:00,2,38245,0,0.00,2,2,0,2,26268,46505,5664,39634,0,0,0,0,0.00,0.00,0.00,0.00
2014-10-17 01:20:00,2,40952,0,0.00,2,2,0,2,29308,49993,6449,41807,0,0,0,0,0.00,0.00,0.00,0.00
2014-10-17 01:30:00,2,33240,0,0.00,2,2,0,2,26489,37923,4355,35400,0,0,0,0,0.00,0.00,0.00,0.00
2014-10-17 01:40:00,2,38007,0,0.00,2,2,0,2,26300,50000,7515,39211,0,0,0,0,0.00,0.00,0.00,0.00
2014-10-17 01:50:00,2,39393,0,0.00,2,2,0,2,30516,50000,8344,35528,0,0,0,0,0.00,0.00,0.00,0.00
2014-10-17 02:00:00,2,44964,0,0.00,2,2,0,2,38325,50000,3690,45446,0,0,0,0,0.00,0.00,0.00,0.00
2014-10-17 02:10:00,2,43086,0,0.00,2,2,0,2,36726,50000,4689,40777,0,0,0,0,0.00,0.00,0.00,0.00
2014-10-17 02:20:00,2,42416,0,0.00,2,2,0,2,29761,50000,6562,43621,0,0,0,0,0.00,0.00,0.00,0.00
2014-10-17 02:30:00,2,38940,0,0.00,2,2,0,2,28142,50000,7354,39312,0,0,0,0,0.00,0.00,0.00,0.00
2014-10-17 02:40:00,2,37964,0,0.00,2,2,0,2,24932,50000,8482,39757,0,0,0,0,0.00,0.00,0.00,0.00
2014-10-17 02:50:00,2,39982,0,0.00,2,2,0,2,24491,50000,8938,43737,0,0,0,0,0.00,0.00,0.00,0.00
2014-10-17 03:00:00,2,38762,0,0.00,2,2,0,2,28597,50000,6759,37712,0,0,0,0,0.00,0.00,0.00,0.00
2014-10-17 03:10:00,2,41953,0,0.00,2,2,0,2,32392,50000,5650,42056,0,0,0,0,0.00,0.00,0.00,0.00
2014-10-17 03:20:00,2,40354,0,0.00,2,2,0,2,27805,49263,6816,40580,0,0,0,0,0.00,0.00,0.00,0.00
2014-10-17 03:30:00,2,42202,0,0.00,2,2,0,2,33140,50000,5982,42916,0,0,0,0,0.00,0.00,0.00,0.00
2014-10-17 03:40:00,2,48073,0,0.00,2,2,0,2,42487,50000,3032,50000,0,0,0,0,0.00,0.00,0.00,0.00
2014-10-17 03:50:00,2,44932,0,0.00,2,2,0,2,40587,50000,3047,44642,0,0,0,0,0.00,0.00,0.00,0.00
2014-10-17 04:00:00,2,42659,0,0.00,2,2,0,2,30280,49550,5966,44780,0,0,0,0,0.00,0.00,0.00,0.00
2014-10-17 04:10:00,2,42979,0,0.00,2,2,0,2,29847,50000,6074,44810,0,0,0,0,0.00,0.00,0.00,0.00
2014-10-17 04:20:00,2,45388,0,0.00,2,2,0,2,26221,50000,6812,46911,0,0,0,0,0.00,0.00,0.00,0.00
2014-10-17 04:30:00,2,47947,0,0.00,2,2,0,2,41235,50000,2763,49268,0,0,0,0,0.00,0.00,0.00,0.00
2014-10-17 04:40:00,2,47992,0,0.00,2,2,0,2,44137,50000,2353,49180,0,0,0,0,0.00,0.00,0.00,0.00
2014-10-17 04:50:00,2,48768,0,0.00,2,2,0,2,43654,50000,1880,49528,0,0,0,0,0.00,0.00,0.00,0.00
2014-10-17 05:00:00,2,49308,0,0.00,2,2,0,2,46248,50000,1272,50000,0,0,0,0,0.00,0.00,0.00,0.00
2014-10-17 05:10:00,2,49744,0,0.00,2,2,0,2,47440,50000,768,50000,0,0,0,0,0.00,0.00,0.00,0.00
2014-10-17 05:20:00,2,49907,0,0.00,2,2,0,2,49558,50000,170,50000,0,0,0,0,0.00,0.00,0.00,0.00
2014-10-17 05:30:00,2,48799,0,0.00,2,2,0,2,43340,50000,2420,50000,0,0,0,0,0.00,0.00,0.00,0.00
2014-10-17 05:40:00,2,49598,0,0.00,2,2,0,2,48250,50000,606,50000,0,0,0,0,0.00,0.00,0.00,0.00
2014-10-17 05:50:00,2,48625,0,0.00,2,2,0,2,44289,50000,2084,49977,0,0,0,0,0.00,0.00,0.00,0.00
2014-10-17 06:00:00,2,49479,0,0.00,2,2,0,2,47331,50000,900,50000,0,0,0,0,0.00,0.00,0.00,0.00
2014-10-17 06:10:00,2,45978,0,0.00,2,2,0,2,38379,50000,3762,46082,0,0,0,0,0.00,0.00,0.00,0.00
2014-10-17 06:20:00,2,48016,0,0.00,2,2,0,2,43802,50000,1976,48146,0,0,0,0,0.00,0.00,0.00,0.00
2014-10-17 06:30:00,2,46201,0,0.00,2,2,0,2,40074,50000,3589,46886,0,0,0,0,0.00,0.00,0.00,0.00
2014-10-17 06:40:00,2,46476,0,0.00,2,2,0,2,39433,50000,3168,47483,0,0,0,0,0.00,0.00,0.00,0.00
2014-10-17 06:50:00,2,32182,0,0.00,2,2,0,2,24458,37452,3855,32625,0,0,0,0,0.00,0.00,0.00,0.00
2014-10-17 07:00:00,2,32823,0,0.00,2,2,0,2,27007,37187,2817,32504,0,0,0,0,0.00,0.00,0.00,0.00
2014-10-17 07:10:00,2,41898,0,0.00,2,2,0,2,34986,46313,3498,42093,0,0,0,0,0.00,0.00,0.00,0.00
2014-10-17 07:20:00,2,30407,0,0.00,2,2,0,2,26361,35818,3031,30350,0,0,0,0,0.00,0.00,0.00,0.00
2014-10-17 07:30:00,2,45808,0,0.00,2,2,0,2,39178,50000,2889,46302,0,0,0,0,0.00,0.00,0.00,0.00
2014-10-17 07:40:00,2,34672,0,0.00,2,2,0,2,30697,39168,3337,34062,0,0,0,0,0.00,0.00,0.00,0.00
2014-10-17 07:50:00,2,19821,0,0.00,2,2,0,2,13872,32334,5603,18176,0,0,0,0,0.00,0.00,0.00,0.00
2014-10-17 08:00:00,2,9220,0,0.00,2,2,0,2,7962,11882,1050,8888,0,0,0,0,0.00,0.00,0.00,0.00
2014-10-17 08:10:00,2,10126,0,0.00,2,2,0,2,9457,11354,561,10056,0,0,0,0,0.00,0.00,0.00,0.00
2014-10-17 08:20:00,2,12006,0,0.00,2,2,0,2,10372,13122,880,12071,0,0,0,0,0.00,0.00,0.00,0.00
2014-10-17 08:30:00,2,10502,0,0.00,2,2,0,2,8109,13421,1618,9874,0,0,0,0,0.00,0.00,0.00,0.00
2014-10-17 08:40:00,2,12369,0,0.00,2,2,0,2,8756,16373,2539,12035,0,0,0,0,0.00,0.00,0.00,0.00
2014-10-17 08:50:00,2,22623,0,0.00,2,2,0,2,13952,30469,6033,21695,0,0,0,0,0.00,0.00,0.00,0.00
2014-10-17 09:00:00,2,32449,0,0.00,2,2,0,2,17623,46042,9127,30374,0,0,0,0,0.00,0.00,0.00,0.00
2014-10-17 09:10:00,2,32442,0,0.00,2,2,0,2,26497,36689,3457,33696,0,0,0,0,0.00,0.00,0.00,0.00
2014-10-17 09:20:00,2,22384,0,0.00,2,2,0,2,18097,25019,1876,22803,0,0,0,0,0.00,0.00,0.00,0.00
2014-10-17 09:30:00,2,19029,0,0.00,2,2,0,2,17200,21472,1461,18571,0,0,0,0,0.00,0.00,0.00,0.00
2014-10-17 09:40:00,2,34419,0,0.00,2,2,0,2,20640,42871,7473,35472,0,0,0,0,0.00,0.00,0.00,0.00
2014-10-17 09:50:00,2,38679,0,0.00,2,2,0,2,33586,42829,3301,38740,0,0,0,0,0.00,0.00,0.00,0.00
2014-10-17 10:00:00,2,39663,0,0.00,2,2,0,2,33078,46275,3551,39051,0,0,0,0,0.00,0.00,0.00,0.00
2014-10-17 10:10:00,2,48895,0,0.00,2,2,0,2,42166,50000,2292,49964,0,0,0,0,0.00,0.00,0.00,0.00
2014-10-17 10:20:00,2,42683,0,0.00,2,2,0,2,32742,46753,4133,44192,0,0,0,0,0.00,0.00,0.00,0.00
2014-10-17 10:30:00,2,42871,0,0.00,2,2,0,2,36679,50000,4570,43854,0,0,0,0,0.00,0.00,0.00,0.00
2014-10-17 10:40:00,2,38478,0,0.00,2,2,0,2,31043,46871,5196,39336,0,0,0,0,0.00,0.00,0.00,0.00
2014-10-17 10:50:00,2,43277,0,0.00,2,2,0,2,36456,48138,4259,43726,0,0,0,0,0.00,0.00,0.00,0.00
2014-10-17 11:00:00,2,44462,0,0.00,2,2,0,2,39755,50000,4076,43068,0,0,0,0,0.00,0.00,0.00,0.00
2014-10-17 11:10:00,2,46724,0,0.00,2,2,0,2,38186,50000,3407,46981,0,0,0,0,0.00,0.00,0.00,0.00
2014-10-17 11:20:00,2,45569,0,0.00,2,2,0,2,39940,50000,3003,45343,0,0,0,0,0.00,0.00,0.00,0.00
2014-10-17 11:30:00,2,48313,0,0.00,2,2,0,2,44135,50000,1814,48680,0,0,0,0,0.00,0.00,0.00,0.00
2014-10-17 11:40:00,2,46254,0,0.00,2,2,0,2,43422,50000,2209,45607,0,0,0,0,0.00,0.00,0.00,0.00
2014-10-17 11:50:00,2,47121,0,0.00,2,2,0,2,39693,50000,3141,48420,0,0,0,0,0.00,0.00,0.00,0.00
2014-10-17 12:00:00,2,46851,0,0.00,2,2,0,2,34750,50000,4547,49054,0,0,0,0,0.00,0.00,0.00,0.00
2014-10-17 12:10:00,2,49100,0,0.00,2,2,0,2,46334,50000,1080,49262,0,0,0,0,0.00,0.00,0.00,0.00
2014-10-17 12:20:00,2,48800,0,0.00,2,2,0,2,43823,50000,1837,49416,0,0,0,0,0.00,0.00,0.00,0.00
2014-10-17 12:30:00,2,50000,0,0.00,2,2,0,2,50000,50000,0,50000,0,0,0,0,0.00,0.00,0.00,0.00
2014-10-17 12:40:00,2,49832,0,0.00,2,2,0,2,48318,50000,505,50000,0,0,0,0,0.00,0.00,0.00,0.00
2014-10-17 12:50:00,2,48685,0,0.00,2,2,0,2,46396,50000,1485,49596,0,0,0,0,0.00,0.00,0.00,0.00
2014-10-17 13:00:00,2,49475,0,0.00,2,2,0,2,44747,50000,1576,50000,0,0,0,0,0.00,0.00,0.00,0.00
2014-10-17 13:10:00,2,49682,0,0.00,2,2,0,2,46817,50000,955,50000,0,0,0,0,0.00,0.00,0.00,0.00
2014-10-17 13:20:00,2,49974,0,0.00,2,2,0,2,49743,50000,77,50000,0,0,0,0,0.00,0.00,0.00,0.00
2014-10-17 13:30:00,2,50000,0,0.00,2,2,0,2,50000,50000,0,50000,0,0,0,0,0.00,0.00,0.00,0.00
2014-10-17 13:40:00,2,49774,0,0.00,2,2,0,2,48716,50000,456,50000,0,0,0,0,0.00,0.00,0.00,0.00
2014-10-17 13:50:00,2,50000,0,0.00,2,2,0,2,50000,50000,0,50000,0,0,0,0,0.00,0.00,0.00,0.00
2014-10-17 14:00:00,2,48342,0,0.00,2,2,0,2,43420,50000,2239,50000,0,0,0,0,0.00,0.00,0.00,0.00
2014-10-17 14:10:00,2,47986,0,0.00,2,2,0,2,38781,50000,3814,50000,0,0,0,0,0.00,0.00,0.00,0.00
2014-10-17 14:20:00,2,42907,0,0.00,2,2,0,2,23122,50000,9078,46579,0,0,0,0,0.00,0.00,0.00,0.00
2014-10-17 14:30:00,2,47377,22,0.00,2,2,0,2,42319,50000,2307,47970,0,78,34,0,0.00,0.00,0.00,0.00
2014-10-17 14:40:00,2,43388,0,0.00,2,2,0,2,35634,50000,4299,42478,0,0,0,0,0.00,0.00,0.00,0.00
2014-10-17 14:50:00,2,43427,22,0.00,2,2,0,2,30882,50000,6811,46884,0,78,34,0,0.00,0.00,0.00,0.00
2014-10-17 15:00:00,2,47330,0,0.00,2,2,0,2,41976,50000,2597,47344,0,0,0,0,0.00,0.00,0.00,0.00
2014-10-17 15:10:00,2,49315,0,0.00,2,2,0,2,43161,50000,2051,50000,0,0,0,0,0.00,0.00,0.00,0.00
2014-10-17 15:20:00,2,43750,22,0.01,2,2,0,2,28525,50000,6446,44628,0,77,33,0,0.00,0.05,0.02,0.00
2014-10-17 15:30:00,2,47640,78,0.00,2,2,0,2,42651,50000,2868,49732,77,78,0,78,0.00,0.00,0.00,0.00
2014-10-17 15:40:00,2,49970,0,0.00,2,2,0,2,49697,50000,91,50000,0,0,0,0,0.00,0.00,0.00,0.00
2014-10-17 15:50:00,2,36691,50,0.02,2,2,0,2,23948,50000,7824,35635,0,71,33,71,0.00,0.10,0.03,0.00
2014-10-17 16:00:00,2,49518,0,0.00,2,2,0,2,48341,50000,653,50000,0,0,0,0,0.00,0.00,0.00,0.00
2014-10-17 16:10:00,2,46934,0,0.00,2,2,0,2,37953,50000,3654,48568,0,0,0,0,0.00,0.00,0.00,0.00
2014-10-17 16:20:00,2,49206,0,0.00,2,2,0,2,46643,50000,1219,50000,0,0,0,0,0.00,0.00,0.00,0.00
2014-10-17 16:30:00,2,48402,0,0.00,2,2,0,2,43155,50000,2277,49766,0,0,0,0,0.00,0.00,0.00,0.00
2014-10-17 16:40:00,2,39393,72,0.01,2,2,0,2,26382,46788,6406,42010,71,78,2,71,0.00,0.15,0.05,0.00
2014-10-17 16:50:00,2,49386,0,0.00,2,2,0,2,46986,50000,1020,50000,0,0,0,0,0.00,0.00,0.00,0.00
2014-10-17 17:00:00,2,46038,0,0.00,2,2,0,2,39093,50000,4194,48010,0,0,0,0,0.00,0.00,0.00,0.00
2014-10-17 17:10:00,2,47787,0,0.00,2,2,0,2,42287,50000,2807,49206,0,0,0,0,0.00,0.00,0.00,0.00
2014-10-17 17:20:00,2,49768,0,0.00,2,2,0,2,47808,50000,654,50000,0,0,0,0,0.00,0.00,0.00,0.00
2014-10-17 17:30:00,2,50000,0,0.00,2,2,0,2,50000,50000,0,50000,0,0,0,0,0.00,0.00,0.00,0.00
2014-10-17 17:40:00,2,49372,0,0.00,2,2,0,2,45338,50000,1383,50000,0,0,0,0,0.00,0.00,0.00,0.00
2014-10-17 17:50:00,2,49146,0,0.00,2,2,0,2,46956,50000,1149,50000,0,0,0,0,0.00,0.00,0.00,0.00
2014-10-17 18:00:00,2,48709,0,0.00,2,2,0,2,45448,50000,1976,50000,0,0,0,0,0.00,0.00,0.00,0.00
2014-10-17 18:10:00,2,48264,0,0.00,2,2,0,2,45773,50000,1690,48974,0,0,0,0,0.00,0.00,0.00,0.00
2014-10-17 18:20:00,2,47624,37,0.00,2,2,0,2,41575,50000,3048,48686,0,78,37,36,0.00,0.00,0.00,0.00
2014-10-17 18:30:00,2,45516,78,0.01,2,2,0,2,39820,50000,3975,45198,78,78,0,78,0.00,0.05,0.02,0.00
2014-10-17 18:40:00,2,49458,15,0.00,2,2,0,2,46746,50000,1018,50000,0,78,30,0,0.00,0.00,0.00,0.00
2014-10-17 18:50:00,2,49835,0,0.00,2,2,0,2,48350,50000,495,50000,0,0,0,0,0.00,0.00,0.00,0.00
2014-10-17 19:00:00,2,49911,0,0.00,2,2,0,2,49110,50000,267,50000,0,0,0,0,0.00,0.00,0.00,0.00
2014-10-17 19:10:00,2,49643,0,0.00,2,2,0,2,46871,50000,933,50000,0,0,0,0,0.00,0.00,0.00,0.00
2014-10-17 19:20:00,2,49387,0,0.00,2,2,0,2,45851,50000,1272,50000,0,0,0,0,0.00,0.00,0.00,0.00
2014-10-17 19:30:00,2,49339,0,0.00,2,2,0,2,45142,50000,1494,50000,0,0,0,0,0.00,0.00,0.00,0.00
2014-10-17 19:40:00,2,45606,0,0.00,2,2,0,2,28067,50000,6763,49137,0,0,0,0,0.00,0.00,0.00,0.00
2014-10-17 19:50:00,2,48481,0,0.00,2,2,0,2,45863,50000,1515,48808,0,0,0,0,0.00,0.00,0.00,0.00
2014-10-17 20:00:00,2,48465,0,0.00,2,2,0,2,43496,50000,2033,49222,0,0,0,0,0.00,0.00,0.00,0.00
2014-10-17 20:10:00,2,49313,0,0.00,2,2,0,2,46924,50000,1097,50000,0,0,0,0,0.00,0.00,0.00,0.00
2014-10-17 20:20:00,2,50000,0,0.00,2,2,0,2,50000,50000,0,50000,0,0,0,0,0.00,0.00,0.00,0.00
2014-10-17 20:30:00,2,49957,0,0.00,2,2,0,2,49607,50000,117,50000,0,0,0,0,0.00,0.00,0.00,0.00
2014-10-17 20:40:00,2,49570,0,0.00,2,2,0,2,47352,50000,888,50000,0,0,0,0,0.00,0.00,0.00,0.00
2014-10-17 20:50:00,2,50000,0,0.00,2,2,0,2,50000,50000,0,50000,0,0,0,0,0.00,0.00,0.00,0.00
2014-10-17 21:00:00,2,48383,0,0.00,2,2,0,2,34225,50000,4720,50000,0,0,0,0,0.00,0.00,0.00,0.00
2014-10-17 21:10:00,2,44961,22,0.01,2,2,0,2,34816,50000,4714,46075,0,77,33,0,0.00,0.05,0.02,0.00
2014-10-17 21:20:00,2,46230,0,0.00,2,2,0,2,34439,50000,4810,48291,0,0,0,0,0.00,0.00,0.00,0.00
2014-10-17 21:30:00,2,48021,0,0.00,2,2,0,2,43289,50000,2480,49188,0,0,0,0,0.00,0.00,0.00,0.00
2014-10-17 21:40:00,2,47088,22,0.00,2,2,0,2,41177,50000,3110,48447,0,78,34,0,0.00,0.00,0.00,0.00
2014-10-17 21:50:00,2,49028,0,0.00,2,2,0,2,44212,50000,1938,50000,0,0,0,0,0.00,0.00,0.00,0.00
2014-10-17 22:00:00,2,47785,0,0.00,2,2,0,2,43902,50000,1967,47866,0,0,0,0,0.00,0.00,0.00,0.00
2014-10-17 22:10:00,2,49264,0,0.00,2,2,0,2,47767,50000,818,49649,0,0,0,0,0.00,0.00,0.00,0.00
2014-10-17 22:20:00,2,50000,0,0.00,2,2,0,2,50000,50000,0,50000,0,0,0,0,0.00,0.00,0.00,0.00
2014-10-17 22:30:00,2,49578,0,0.00,2,2,0,2,45867,50000,1237,50000,0,0,0,0,0.00,0.00,0.00,0.00
2014-10-17 22:40:00,2,48146,0,0.00,2,2,0,2,43376,50000,2424,50000,0,0,0,0,0.00,0.00,0.00,0.00
2014-10-17 22:50:00,2,49721,0,0.00,2,2,0,2,48707,50000,454,50000,0,0,0,0,0.00,0.00,0.00,0.00
2014-10-17 23:00:00,2,50000,0,0.00,2,2,0,2,50000,50000,0,50000,0,0,0,0,0.00,0.00,0.00,0.00
2014-10-17 23:10:00,2,48869,0,0.00,2,2,0,2,43441,50000,2038,50000,0,0,0,0,0.00,0.00,0.00,0.00
2014-10-17 23:20:00,2,49054,0,0.00,2,2,0,2,40539,50000,2838,50000,0,0,0,0,0.00,0.00,0.00,0.00
2014-10-17 23:30:00,2,49324,0,0.00,2,2,0,2,44080,50000,1760,50000,0,0,0,0,0.00,0.00,0.00,0.00
2014-10-17 23:40:00,2,47040,0,0.00,2,2,0,2,36920,50000,4510,49829,0,0,0,0,0.00,0.00,0.00,0.00
2014-10-17 23:50:00,2,40676,0,0.00,2,2,0,2,32356,50000,6297,37751,0,0,0,0,0.00,0.00,0.00,0.00
